H1 CPF 2 NER 2025 11 29 9 333 01 glonass138 H2 1805301 9138 43508 2025 11 29 0 0 0 2025 12 2 23 45 0 900 1 1 0 0 0 1 H9 10 0 61008 0.00000 0 -16851781.985 -11023642.270 -15629228.601 10 0 61008 900.00000 0 -14839750.039 -10512746.869 -17862730.286 10 0 61008 1800.00000 0 -12543357.822 -10125394.296 -19748612.231 10 0 61008 2700.00000 0 -10016369.249 -9901346.354 -21250242.627 10 0 61008 3600.00000 0 -7320602.310 -9870292.912 -22338490.019 10 0 61008 4500.00000 0 -4523570.238 -10050498.189 -22992285.039 10 0 61008 5400.00000 0 -1695893.087 -10447946.580 -23199023.156 10 0 61008 6300.00000 0 1091412.545 -11056023.709 -22954801.381 10 0 61008 7200.00000 0 3769653.025 -11855745.676 -22264485.068 10 0 61008 8100.00000 0 6275073.929 -12816526.334 -21141604.306 10 0 61008 9000.00000 0 8551265.076 -13897449.886 -19608082.512 10 0 61008 9900.00000 0 10551255.455 -15048994.851 -17693803.046 10 0 61008 10800.00000 0 12239212.353 -16215136.657 -15436022.616 10 0 61008 11700.00000 0 13591675.533 -17335740.312 -12878643.064 10 0 61008 12600.00000 0 14598276.829 -18349142.522 -10071355.821 10 0 61008 13500.00000 0 15261916.919 -19194814.728 -7068675.672 10 0 61008 14400.00000 0 15598393.782 -19815995.233 -3928882.562 10 0 61008 15300.00000 0 15635500.034 -20162179.847 -712891.975 10 0 61008 16200.00000 0 15411628.579 -20191366.501 2516924.255 10 0 61008 17100.00000 0 14973946.313 -19871959.542 5697943.925 10 0 61008 18000.00000 0 14376213.645 -19184253.702 8768503.960 10 0 61008 18900.00000 0 13676342.100 -18121435.311 11669090.219 10 0 61008 19800.00000 0 12933793.116 -16690058.422 14343484.888 10 0 61008 20700.00000 0 12206927.485 -14909975.410 16739849.665 10 0 61008 21600.00000 0 11550416.769 -12813724.187 18811724.304 10 0 61008 22500.00000 0 11012825.258 -10445396.629 20518921.852 10 0 61008 23400.00000 0 10634463.761 -7859034.224 21828303.837 10 0 61008 24300.00000 0 10445605.185 -5116616.378 22714420.993 10 0 61008 25200.00000 0 10465136.749 -2285723.507 23160007.584 10 0 61008 26100.00000 0 10699705.627 563029.491 23156319.917 10 0 61008 27000.00000 0 11143394.340 3358684.336 22703312.437 10 0 61008 27900.00000 0 11777940.327 6032644.714 21809647.625 10 0 61008 28800.00000 0 12573491.482 8521284.704 20492538.803 10 0 61008 29700.00000 0 13489867.102 10768352.810 18777427.952 10 0 61008 30600.00000 0 14478272.468 12727072.299 16697503.684 10 0 61008 31500.00000 0 15483396.023 14361850.670 14293067.561 10 0 61008 32400.00000 0 16445801.694 15649527.115 11610759.966 10 0 61008 33300.00000 0 17304516.049 16580105.846 8702659.652 10 0 61008 34200.00000 0 17999701.175 17156944.505 5625273.896 10 0 61008 35100.00000 0 18475300.044 17396389.807 2438438.692 10 0 61008 36000.00000 0 18681541.783 17326875.939 -795849.474 10 0 61008 36900.00000 0 18577199.770 16987524.096 -4014646.914 10 0 61008 37800.00000 0 18131505.750 16426302.909 -7155296.616 10 0 61008 38700.00000 0 17325637.556 15697828.344 -10156657.615 10 0 61008 39600.00000 0 16153716.200 14860897.152 -12960304.749 10 0 61008 40500.00000 0 14623268.954 13975859.305 -15511674.342 10 0 61008 41400.00000 0 12755137.861 13101941.627 -17761132.627 10 0 61008 42300.00000 0 10582836.758 12294636.778 -19664945.452 10 0 61008 43200.00000 0 8151383.296 11603268.620 -21186130.092 10 0 61008 44100.00000 0 5515654.610 11068837.219 -22295172.654 10 0 61008 45000.00000 0 2738335.321 10722234.485 -22970597.428 10 0 61008 45900.00000 0 -112456.566 10582905.451 -23199377.702 10 0 61008 46800.00000 0 -2965766.971 10658011.056 -22977180.785 10 0 61008 47700.00000 0 -5750518.365 10942127.002 -22308443.239 10 0 61008 48600.00000 0 -8398225.277 11417490.466 -21206275.631 10 0 61008 49500.00000 0 -10845600.469 12054783.507 -19692199.283 10 0 61008 50400.00000 0 -13036944.313 12814419.357 -17795720.678 10 0 61008 51300.00000 0 -14926219.147 13648276.858 -15553752.128 10 0 61008 52200.00000 0 -16478723.706 14501809.514 -13009890.187 10 0 61008 53100.00000 0 -17672299.329 15316440.051 -10213565.938 10 0 61008 54000.00000 0 -18498019.326 16032139.464 -7219083.691 10 0 61008 54900.00000 0 -18960334.357 16590081.876 -4084566.726 10 0 61008 55800.00000 0 -19076669.353 16935263.381 -870830.554 10 0 61008 56700.00000 0 -18876490.364 17018974.648 2359794.510 10 0 61008 57600.00000 0 -18399881.742 16801023.185 5544668.683 10 0 61008 58500.00000 0 -17695694.437 16251611.713 8622052.719 10 0 61008 59400.00000 0 -16819343.881 15352793.517 11532299.289 10 0 61008 60300.00000 0 -15830350.424 14099443.308 14219003.043 10 0 61008 61200.00000 0 -14789725.782 12499702.337 16630087.426 10 0 61008 62100.00000 0 -13757315.140 10574878.342 18718807.806 10 0 61008 63000.00000 0 -12789206.196 8358803.475 20444652.114 10 0 61008 63900.00000 0 -11935313.444 5896675.736 21774122.177 10 0 61008 64800.00000 0 -11237238.584 3243430.746 22681381.238 10 0 61008 65700.00000 0 -10726496.405 461709.951 23148755.575 10 0 61008 66600.00000 0 -10423180.331 -2380491.953 23167080.717 10 0 61008 67500.00000 0 -10335123.599 -5212404.319 22735885.509 10 0 61008 68400.00000 0 -10457591.544 -7963177.161 21863410.106 10 0 61008 69300.00000 0 -10773518.449 -10564586.400 20566456.848 10 0 61008 70200.00000 0 -11254279.783 -12953636.452 18870076.020 10 0 61008 71100.00000 0 -11860968.237 -15074952.696 16807091.437 10 0 61008 72000.00000 0 -12546120.738 -16882864.594 14417473.942 10 0 61008 72900.00000 0 -13255824.434 -18343092.768 11747573.843 10 0 61008 73800.00000 0 -13932113.339 -19433969.471 8849226.300 10 0 61008 74700.00000 0 -14515554.546 -20147141.163 5778746.445 10 0 61008 75600.00000 0 -14947914.471 -20487723.557 2595833.527 10 0 61008 76500.00000 0 -15174791.660 -20473902.552 -637594.441 10 0 61008 77400.00000 0 -15148103.693 -20135997.972 -3858612.273 10 0 61008 78300.00000 0 -14828321.625 -19515029.956 -7004521.017 10 0 61008 79200.00000 0 -14186355.904 -18660849.128 -10014078.080 10 0 61008 80100.00000 0 -13205012.503 -17629910.379 -12828698.952 10 0 61008 81000.00000 0 -11879956.296 -16482785.269 -15393606.029 10 0 61008 81900.00000 0 -10220139.765 -15281519.191 -17658901.289 10 0 61008 82800.00000 0 -8247677.954 -14086945.833 -19580541.237 10 0 61008 83700.00000 0 -5997174.138 -12956073.015 -21121194.873 10 0 61008 84600.00000 0 -3514523.952 -11939650.623 -22250968.012 10 0 61008 85500.00000 0 -855247.723 -11080023.201 -22947980.180 10 0 61009 0.00000 0 1917579.304 -10409357.435 -23198783.440 10 0 61009 900.00000 0 4735714.184 -9948318.146 -22998615.785 10 0 61009 1800.00000 0 7528347.968 -9705248.460 -22351484.691 10 0 61009 2700.00000 0 10224818.900 -9675886.319 -21270080.420 10 0 61009 3600.00000 0 12757321.060 -9843629.016 -19775520.931 10 0 61009 4500.00000 0 15063497.981 -10180333.055 -17896934.116 10 0 61009 5400.00000 0 17088814.001 -10647614.665 -15670885.777 10 0 61009 6300.00000 0 18788605.768 -11198595.304 -13140664.680 10 0 61009 7200.00000 0 20129729.669 -11780017.918 -10355438.704 10 0 61009 8100.00000 0 21091737.878 -12334644.259 -7369298.524 10 0 61009 9000.00000 0 21667535.366 -12803831.868 -4240207.362 10 0 61009 9900.00000 0 21863491.829 -13130181.890 -1028877.218 10 0 61009 10800.00000 0 21699005.237 -13260145.968 2202406.667 10 0 61009 11700.00000 0 21205536.517 -13146482.291 5390990.397 10 0 61009 12600.00000 0 20425156.849 -12750457.217 8475061.788 10 0 61009 13500.00000 0 19408669.301 -12043699.634 11394843.253 10 0 61009 14400.00000 0 18213384.087 -11009629.767 14093744.436 10 0 61009 15300.00000 0 16900640.982 -9644401.906 16519452.635 10 0 61009 16200.00000 0 15533182.707 -7957320.806 18624940.500 10 0 61009 17100.00000 0 14172489.090 -5970713.287 20369372.076 10 0 61009 18000.00000 0 12876183.202 -3719259.160 21718890.313 10 0 61009 18900.00000 0 11695617.510 -1248807.876 22647271.392 10 0 61009 19800.00000 0 10673740.506 1385271.493 23136433.673 10 0 61009 20700.00000 0 9843332.621 4120140.096 23176791.621 10 0 61009 21600.00000 0 9225684.902 6887855.539 22767447.866 10 0 61009 22500.00000 0 8829775.657 9617957.974 21916219.310 10 0 61009 23400.00000 0 8651979.694 12240170.064 20639496.122 10 0 61009 24300.00000 0 8676322.638 14687099.885 18961935.441 10 0 61009 25200.00000 0 8875270.173 16896835.225 16915994.624 10 0 61009 26100.00000 0 9211019.572 18815321.762 14541311.935 10 0 61009 27000.00000 0 9637239.645 20398426.095 11883945.587 10 0 61009 27900.00000 0 10101186.138 21613597.359 8995484.966 10 0 61009 28800.00000 0 10546103.353 22441057.529 5932050.728 10 0 61009 29700.00000 0 10913810.237 22874470.134 2753202.943 10 0 61009 30600.00000 0 11147360.945 22921058.959 -479221.361 10 0 61009 31500.00000 0 11193666.243 22601171.546 -3702318.042 10 0 61009 32400.00000 0 11005963.509 21947305.948 -6853348.698 10 0 61009 33300.00000 0 10546029.258 21002642.076 -9870971.499 10 0 61009 34200.00000 0 9786038.999 19819140.210 -12696444.817 10 0 61009 35100.00000 0 8709994.244 18455287.675 -15274779.162 10 0 61009 36000.00000 0 7314654.991 16973589.654 -17555814.086 10 0 61009 36900.00000 0 5609937.126 15437910.855 -19495198.384 10 0 61009 37800.00000 0 3618757.062 13910780.816 -21055254.213 10 0 61009 38700.00000 0 1376329.364 12450776.806 -22205708.340 10 0 61009 39600.00000 0 -1071053.697 11110094.643 -22924276.553 10 0 61009 40500.00000 0 -3667709.981 9932409.304 -23197090.467 10 0 61009 41400.00000 0 -6350652.478 8951114.609 -23018959.134 10 0 61009 42300.00000 0 -9051984.763 8188014.930 -22393461.121 10 0 61009 43200.00000 0 -11701507.377 7652522.627 -21332866.032 10 0 61009 44100.00000 0 -14229427.078 7341393.438 -19857887.660 10 0 61009 45000.00000 0 -16569056.664 7239009.478 -17997274.047 10 0 61009 45900.00000 0 -18659393.725 7318196.442 -15787242.831 10 0 61009 46800.00000 0 -20447471.784 7541539.332 -13270773.017 10 0 61009 47700.00000 0 -21890386.811 7863140.150 -10496767.091 10 0 61009 48600.00000 0 -22956915.700 8230742.605 -7519099.771 10 0 61009 49500.00000 0 -23628660.304 8588133.572 -4395571.847 10 0 61009 50400.00000 0 -23900670.389 8877719.549 -1186789.421 10 0 61009 51300.00000 0 -23781520.623 9043169.111 2045009.720 10 0 61009 52200.00000 0 -23292839.440 9032009.702 5237159.936 10 0 61009 53100.00000 0 -22468310.435 8798069.114 8327778.471 10 0 61009 54000.00000 0 -21352188.892 8303658.594 11256959.830 10 0 61009 54900.00000 0 -19997396.047 7521405.412 13967930.976 10 0 61009 55800.00000 0 -18463271.195 6435657.422 16408145.326 10 0 61009 56700.00000 0 -16813075.711 5043400.004 18530294.948 10 0 61009 57600.00000 0 -15111353.121 3354646.055 20293221.968 10 0 61009 58500.00000 0 -13421255.178 1392281.545 21662712.189 10 0 61009 59400.00000 0 -11801945.038 -808628.342 22612156.167 10 0 61009 60300.00000 0 -10306185.283 -3202045.234 23123065.457 10 0 61009 61200.00000 0 -8978210.901 -5732627.316 23185434.230 10 0 61009 62100.00000 0 -7851975.406 -8337795.213 22797939.321 10 0 61009 63000.00000 0 -6949842.969 -10950109.937 21967974.444 10 0 61009 63900.00000 0 -6281780.982 -13499865.656 20711517.293 10 0 61009 64800.00000 0 -5845086.833 -15917790.877 19052831.223 10 0 61009 65700.00000 0 -5624660.440 -18137746.639 17024006.142 10 0 61009 66600.00000 0 -5593811.383 -20099309.958 14664346.428 10 0 61009 67500.00000 0 -5715566.930 -21750134.948 12019616.575 10 0 61009 68400.00000 0 -5944426.076 -23047992.882 9141158.321 10 0 61009 69300.00000 0 -6228485.592 -23962405.343 6084895.751 10 0 61009 70200.00000 0 -6511848.007 -24475801.470 2910247.466 10 0 61009 71100.00000 0 -6737209.105 -24584150.067 -321032.940 10 0 61009 72000.00000 0 -6848514.483 -24297039.513 -3546064.960 10 0 61009 72900.00000 0 -6793571.446 -23637201.775 -6702073.483 10 0 61009 73800.00000 0 -6526504.205 -22639500.576 -9727620.300 10 0 61009 74700.00000 0 -6009946.838 -21349426.601 -12563809.627 10 0 61009 75600.00000 0 -5216879.668 -19821163.720 -15155443.090 10 0 61009 76500.00000 0 -4132029.957 -18115308.398 -17452100.773 10 0 61009 77400.00000 0 -2752776.481 -16296339.161 -19409126.569 10 0 61009 78300.00000 0 -1089518.761 -14429943.316 -20988498.346 10 0 61009 79200.00000 0 834505.433 -12580313.869 -22159565.993 10 0 61009 80100.00000 0 2983947.310 -10807530.464 -22899643.280 10 0 61009 81000.00000 0 5312588.984 -9165134.100 -23194442.586 10 0 61009 81900.00000 0 7765048.528 -7697996.840 -23038344.743 10 0 61009 82800.00000 0 10278877.173 -6440574.856 -22434499.511 10 0 61009 83700.00000 0 12786961.430 -5415616.780 -21394755.492 10 0 61009 84600.00000 0 15220130.335 -4633379.914 -19939421.468 10 0 61009 85500.00000 0 17509859.512 -4091385.498 -18096864.330 10 0 61010 0.00000 0 19590959.734 -3774721.561 -15902951.992 10 0 61010 900.00000 0 21404139.615 -3656878.806 -13400351.082 10 0 61010 1800.00000 0 22898333.524 -3701083.207 -10637696.212 10 0 61010 2700.00000 0 24032702.130 -3862067.381 -7668643.081 10 0 61010 3600.00000 0 24778220.072 -4088205.492 -4550826.654 10 0 61010 4500.00000 0 25118786.481 -4323920.648 -1344743.530 10 0 61010 5400.00000 0 25051812.588 -4512262.725 1887419.660 10 0 61010 6300.00000 0 24588262.743 -4597547.473 5082989.177 10 0 61010 7200.00000 0 23752147.828 -4527945.298 8180015.155 10 0 61010 8100.00000 0 22579492.924 -4257910.394 11118467.355 10 0 61010 9000.00000 0 21116822.808 -3750347.629 13841392.839 10 0 61010 9900.00000 0 19419228.882 -2978425.702 16296013.493 10 0 61010 10800.00000 0 17548098.272 -1926959.860 18434742.713 10 0 61010 11700.00000 0 15568599.696 -593305.414 20216102.172 10 0 61010 12600.00000 0 13547030.570 1012276.332 21605521.570 10 0 61010 13500.00000 0 11548135.356 2866796.362 22576006.484 10 0 61010 14400.00000 0 9632506.137 4935254.499 23108661.905 10 0 61010 15300.00000 0 7854173.013 7171866.089 23193061.574 10 0 61010 16200.00000 0 6258483.929 9521749.559 22827455.995 10 0 61010 17100.00000 0 4880361.670 11923006.456 22018814.776 10 0 61010 18000.00000 0 3743010.238 14309109.133 20782701.860 10 0 61010 18900.00000 0 2857124.331 16611498.191 19142985.188 10 0 61010 19800.00000 0 2220634.794 18762282.691 17131385.305 10 0 61010 20700.00000 0 1819000.724 20696931.275 14786870.524 10 0 61010 21600.00000 0 1626035.978 22356842.228 12154909.250 10 0 61010 22500.00000 0 1605235.359 23691684.941 9286593.028 10 0 61010 23400.00000 0 1711544.492 24661414.256 6237646.707 10 0 61010 24300.00000 0 1893498.399 25237872.548 3067344.668 10 0 61010 25200.00000 0 2095637.803 25405911.440 -162645.719 10 0 61010 26100.00000 0 2261100.072 25163985.165 -3389470.350 10 0 61010 27000.00000 0 2334273.938 24524189.957 -6550320.091 10 0 61010 27900.00000 0 2263404.200 23511747.401 -9583662.883 10 0 61010 28800.00000 0 2003034.560 22163953.393 -12430451.107 10 0 61010 29700.00000 0 1516183.655 20528637.146 -15035279.585 10 0 61010 30600.00000 0 776160.757 18662195.570 -17347470.756 10 0 61010 31500.00000 0 -232056.924 16627286.310 -19322065.179 10 0 61010 32400.00000 0 -1510944.565 14490277.030 -20920697.749 10 0 61010 33300.00000 0 -3050085.637 12318558.575 -22112342.558 10 0 61010 34200.00000 0 -4826378.564 10177835.034 -22873912.186 10 0 61010 35100.00000 0 -6804785.933 8129504.240 -23190700.306 10 0 61010 36000.00000 0 -8939595.217 6228237.968 -23056659.725 10 0 61010 36900.00000 0 -11176138.498 4519862.286 -22474511.196 10 0 61010 37800.00000 0 -13452899.520 3039625.550 -21455681.654 10 0 61010 38700.00000 0 -15703920.343 1810924.918 -20020073.743 10 0 61010 39600.00000 0 -17861407.385 844542.977 -18195671.608 10 0 61010 40500.00000 0 -19858428.459 138424.518 -16017991.010 10 0 61010 41400.00000 0 -21631588.705 -321999.105 -13529384.656 10 0 61010 42300.00000 0 -23123574.140 -562953.453 -10778216.354 10 0 61010 43200.00000 0 -24285457.214 -620970.005 -7817920.087 10 0 61010 44100.00000 0 -25078668.605 -541098.927 -4705962.248 10 0 61010 45000.00000 0 -25476553.440 -374762.055 -1502727.184 10 0 61010 45900.00000 0 -25465447.489 -177337.449 1729652.329 10 0 61010 46800.00000 0 -25045228.900 -5578.043 4928497.099 10 0 61010 47700.00000 0 -24229322.908 85026.333 8031792.715 10 0 61010 48600.00000 0 -23044159.753 42832.030 10979386.668 10 0 61010 49500.00000 0 -21528108.753 -177539.326 13714148.462 10 0 61010 50400.00000 0 -19729933.167 -613047.822 16183070.616 10 0 61010 51300.00000 0 -17706830.282 -1290439.199 18338289.784 10 0 61010 52200.00000 0 -15522138.144 -2224881.694 20138008.821 10 0 61010 53100.00000 0 -13242804.008 -3419093.712 21547302.606 10 0 61010 54000.00000 0 -10936719.238 -4862999.854 22538792.633 10 0 61010 54900.00000 0 -8670030.696 -6533930.999 23093177.832 10 0 61010 55800.00000 0 -6504539.613 -8397361.628 23199611.616 10 0 61010 56700.00000 0 -4495295.212 -10408155.338 22855917.895 10 0 61010 57600.00000 0 -2688482.374 -12512268.447 22068641.571 10 0 61010 58500.00000 0 -1119690.627 -14648842.415 20852931.936 10 0 61010 59400.00000 0 187363.924 -16752599.470 19232260.336 10 0 61010 60300.00000 0 1221610.761 -18756442.830 17237976.515 10 0 61010 61200.00000 0 1984859.097 -20594153.876 14908711.049 10 0 61010 62100.00000 0 2491484.336 -22203074.051 12289634.361 10 0 61010 63000.00000 0 2767580.110 -23526659.267 9431585.728 10 0 61010 63900.00000 0 2849611.745 -24516799.364 6390088.529 10 0 61010 64800.00000 0 2782628.230 -25135804.545 3224270.586 10 0 61010 65700.00000 0 2618108.742 -25357974.349 -4289.365 10 0 61010 66600.00000 0 2411535.583 -25170682.137 -3232766.085 10 0 61010 67500.00000 0 2219797.298 -24574928.439 -6398318.897 10 0 61010 68400.00000 0 2098533.252 -23585339.082 -9439324.408 10 0 61010 69300.00000 0 2099533.547 -22229607.665 -12296585.680 10 0 61010 70200.00000 0 2268305.879 -20547405.632 -14914493.221 10 0 61010 71100.00000 0 2641913.747 -18588805.925 -17242114.238 10 0 61010 72000.00000 0 3247178.708 -16412286.799 -19234188.218 10 0 61010 72900.00000 0 4099323.712 -14082400.097 -20852009.115 10 0 61010 73800.00000 0 5201115.597 -11667202.219 -22064176.941 10 0 61010 74700.00000 0 6542543.488 -9235555.747 -22847204.413 10 0 61010 75600.00000 0 8101047.052 -6854414.720 -23185967.408 10 0 61010 76500.00000 0 9842285.310 -4586206.740 -23073991.167 10 0 61010 77400.00000 0 11721413.911 -2486420.690 -22513567.448 10 0 61010 78300.00000 0 13684817.526 -601499.706 -21515701.114 10 0 61010 79200.00000 0 15672224.968 1032873.996 -20099887.835 10 0 61010 80100.00000 0 17619118.731 2393032.465 -18293727.769 10 0 61010 81000.00000 0 19459338.400 3468063.058 -16132383.088 10 0 61010 81900.00000 0 21127769.380 4260008.170 -13657890.116 10 0 61010 82800.00000 0 22563004.797 4783517.264 -10918339.570 10 0 61010 83700.00000 0 23709869.620 5064967.700 -7966940.873 10 0 61010 84600.00000 0 24521701.809 5141092.985 -4860988.684 10 0 61010 85500.00000 0 24962295.375 5057177.603 -1660751.723 10 0 61011 0.00000 0 25007424.481 4864895.609 1571694.291 10 0 61011 900.00000 0 24645885.052 4619884.831 4773668.754 10 0 61011 1800.00000 0 23880010.634 4379159.837 7883095.743 10 0 61011 2700.00000 0 22725641.217 4198472.758 10839703.538 10 0 61011 3600.00000 0 21211546.233 4129733.695 13586186.824 10 0 61011 4500.00000 0 19378325.869 4218599.420 16069311.126 10 0 61011 5400.00000 0 17276836.291 4502332.032 18240938.331 10 0 61011 6300.00000 0 14966203.945 5008017.854 20058954.064 10 0 61011 7200.00000 0 12511511.054 5751221.778 21488079.588 10 0 61011 8100.00000 0 9981247.776 6735134.176 22500553.129 10 0 61011 9000.00000 0 7444635.969 7950247.056 23076667.990 10 0 61011 9900.00000 0 4968934.807 9374574.262 23205157.279 10 0 61011 10800.00000 0 2616839.078 10974407.953 22883417.913 10 0 61011 11700.00000 0 444077.309 12705581.444 22117569.248 10 0 61011 12600.00000 0 -1502691.278 14515187.334 20922344.632 10 0 61011 13500.00000 0 -3187594.163 16343680.773 19320817.111 10 0 61011 14400.00000 0 -4586806.220 18127281.427 17343963.534 10 0 61011 15300.00000 0 -5689301.413 19800574.742 15030074.338 10 0 61011 16200.00000 0 -6497064.266 21299204.296 12424019.321 10 0 61011 17100.00000 0 -7024752.409 22562542.600 9576382.680 10 0 61011 18000.00000 0 -7298824.559 23536227.974 6542483.424 10 0 61011 18900.00000 0 -7356170.947 24174460.226 3381299.870 10 0 61011 19800.00000 0 -7242304.418 24441957.579 154319.190 10 0 61011 20700.00000 0 -7009189.359 24315491.252 -3075665.109 10 0 61011 21600.00000 0 -6712801.213 23784931.848 -6245783.565 10 0 61011 22500.00000 0 -6410521.075 22853762.350 -9294324.023 10 0 61011 23400.00000 0 -6158477.028 21539035.207 -12161942.583 10 0 61011 24300.00000 0 -6008946.199 19870774.742 -14792827.526 10 0 61011 25200.00000 0 -6007928.876 17890849.713 -17135792.626 10 0 61011 26100.00000 0 -6192998.538 15651363.426 -19145277.809 10 0 61011 27000.00000 0 -6591519.690 13212629.157 -20782237.311 10 0 61011 27900.00000 0 -7219309.523 10640816.040 -22014898.010 10 0 61011 28800.00000 0 -8079800.331 8005364.227 -22819373.432 10 0 61011 29700.00000 0 -9163738.284 5376277.480 -23180122.034 10 0 61011 30600.00000 0 -10449431.304 2821406.091 -23090241.535 10 0 61011 31500.00000 0 -11903535.652 403833.029 -22551594.370 10 0 61011 32400.00000 0 -13482348.122 -1820528.539 -21574762.573 10 0 61011 33300.00000 0 -15133549.632 -3805027.399 -20178833.647 10 0 61011 34200.00000 0 -16798327.075 -5513970.371 -18391022.121 10 0 61011 35100.00000 0 -18413784.581 -6923853.342 -16246134.529 10 0 61011 36000.00000 0 -19915543.307 -8024077.752 -13785888.416 10 0 61011 36900.00000 0 -21240420.952 -8817124.603 -11058098.756 10 0 61011 37800.00000 0 -22329078.981 -9318180.651 -8115747.578 10 0 61011 38700.00000 0 -23128526.822 -9554234.344 -5015954.889 10 0 61011 39600.00000 0 -23594378.324 -9562681.078 -1818870.823 10 0 61011 40500.00000 0 -23692766.081 -9389497.859 1413489.475 10 0 61011 41400.00000 0 -23401833.591 -9087065.257 4618445.722 10 0 61011 42300.00000 0 -22712742.813 -8711729.220 7733863.871 10 0 61011 43200.00000 0 -21630154.954 -8321205.999 10699355.699 10 0 61011 44100.00000 0 -20172164.252 -7971939.811 13457443.610 10 0 61011 45000.00000 0 -18369687.280 -7716524.655 15954668.438 10 0 61011 45900.00000 0 -16265332.843 -7601298.844 18142619.315 10 0 61011 46800.00000 0 -13911798.966 -7664213.443 19978866.282 10 0 61011 47700.00000 0 -11369862.941 -7933064.293 21427778.206 10 0 61011 48600.00000 0 -8706047.094 -8424162.153 22461210.823 10 0 61011 49500.00000 0 -5990056.119 -9141497.240 23059052.104 10 0 61011 50400.00000 0 -3292091.269 -10076434.015 23209614.713 10 0 61011 51300.00000 0 -680151.656 -11207950.073 22909868.011 10 0 61011 52200.00000 0 1782566.446 -12503410.505 22165504.874 10 0 61011 53100.00000 0 4040065.293 -13919846.776 20990841.450 10 0 61011 54000.00000 0 6045637.604 -15405688.153 19408550.946 10 0 61011 54900.00000 0 7763568.316 -16902874.593 17449235.516 10 0 61011 55800.00000 0 9170375.602 -18349263.730 15150843.414 10 0 61011 56700.00000 0 10255539.595 -19681231.850 12557941.543 10 0 61011 57600.00000 0 11021688.471 -20836360.034 9720856.540 10 0 61011 58500.00000 0 11484234.216 -21756092.454 6694700.391 10 0 61011 59400.00000 0 11670473.601 -22388254.427 3538299.138 10 0 61011 60300.00000 0 11618192.645 -22689323.222 313045.561 10 0 61011 61200.00000 0 11373833.973 -22626354.694 -2918301.375 10 0 61011 62100.00000 0 10990305.390 -22178483.123 -6092846.150 10 0 61011 63000.00000 0 10524523.366 -21337929.678 -9148790.459 10 0 61011 63900.00000 0 10034796.634 -20110475.765 -12026645.880 10 0 61011 64800.00000 0 9578161.960 -18515380.353 -14670400.730 10 0 61011 65700.00000 0 9207786.130 -16584744.063 -17028617.396 10 0 61011 66600.00000 0 8970545.221 -14362346.425 -19055438.041 10 0 61011 67500.00000 0 8904884.468 -11902004.973 -20711478.678 10 0 61011 68400.00000 0 9039049.771 -9265524.997 -21964594.216 10 0 61011 69300.00000 0 9389765.873 -6520325.918 -22790499.775 10 0 61011 70200.00000 0 9961417.048 -3736843.498 -23173236.773 10 0 61011 71100.00000 0 10745764.687 -985816.184 -23105475.396 10 0 61011 72000.00000 0 11722213.418 1664431.598 -22588648.345 10 0 61011 72900.00000 0 12858614.247 4150596.711 -21632914.057 10 0 61011 73800.00000 0 14112570.653 6416787.521 -20256950.747 10 0 61011 74700.00000 0 15433192.506 8416598.809 -18487585.867 10 0 61011 75600.00000 0 16763223.976 10114786.448 -16359268.534 10 0 61011 76500.00000 0 18041456.021 11488473.815 -13913395.414 10 0 61011 77400.00000 0 19205322.145 12527841.419 -11197503.307 10 0 61011 78300.00000 0 20193568.514 13236272.841 -8264344.129 10 0 61011 79200.00000 0 20948886.438 13629952.786 -5170860.240 10 0 61011 80100.00000 0 21420396.756 13736935.788 -1977080.011 10 0 61011 81000.00000 0 21565881.946 13595726.238 1255044.970 10 0 61011 81900.00000 0 21353672.308 13253430.672 4462838.572 10 0 61011 82800.00000 0 20764107.042 12763561.017 7584111.473 10 0 61011 83700.00000 0 19790508.870 12183581.951 10558361.854 10 0 61011 84600.00000 0 18439631.086 11572305.988 13327942.465 10 0 61011 85500.00000 0 16731557.941 10987246.108 15839171.744 99